Theta_e
318 316 317 318 319 319 321 322 322 325 326 327 331 338 338 332 335 343 323 325 324 328 333 337 337 334 333 334 335 335 335 335 335 336 336 337 337 335 334 334 333 333 334 332 331 330 330 329 327
317 318 317 317 317 317 319 321 322 323 324 330 334 336 334 331 323 320 320 318 323 325 334 336 336 335 334 333 334 335 334 335 335 334 336 337 335 334 333 333 332 332 333 331 329 328 328 326 328
317 316 319 317 315 315 318 321 321 322 327 330 335 327 324 323 318 316 315 317 323 326 331 334 335 336 335 335 334 332 332 333 333 333 336 335 336 333 332 333 332 332 334 331 329 327 326 325 328
319 317 316 319 319 319 321 320 321 322 324 323 330 329 318 314 315 315 316 318 321 324 327 330 333 335 335 335 332 331 329 330 331 329 331 335 335 332 332 332 332 331 333 331 328 327 327 326 326
316 316 317 318 321 320 319 318 320 321 322 321 323 331 324 316 316 316 317 319 319 322 324 325 329 333 334 334 329 330 329 331 333 333 328 325 334 333 331 331 332 331 331 330 329 326 325 325 325
317 315 315 316 320 319 318 317 320 320 320 320 322 323 325 318 314 315 318 318 319 319 321 322 323 326 330 331 332 331 330 330 330 331 333 334 331 332 333 332 332 331 330 329 328 326 325 324 323
317 315 317 316 319 319 318 316 317 319 319 320 316 321 321 317 312 315 318 318 317 316 319 320 321 321 323 327 330 330 330 328 328 329 332 331 332 331 331 331 332 331 330 329 328 326 326 324 319
316 316 316 316 318 319 315 316 315 317 319 315 313 318 318 311 311 314 317 317 316 313 313 315 318 320 321 322 323 325 328 328 328 327 330 331 328 329 330 330 331 331 330 328 327 325 324 320 315
316 316 317 317 316 317 312 313 314 314 314 314 312 311 309 308 311 313 315 315 314 313 313 310 314 315 319 321 321 321 320 327 329 328 328 326 325 330 331 331 331 330 330 329 326 326 319 318 316
316 316 315 312 311 311 310 312 312 312 314 313 312 311 308 307 309 311 313 312 311 309 311 309 310 313 314 317 321 321 323 322 324 329 329 328 325 329 332 332 331 331 330 324 321 324 321 319 319
312 315 310 310 312 310 311 312 312 312 313 313 311 310 307 307 307 308 308 309 308 307 307 307 308 311 312 315 317 321 320 322 322 325 328 328 325 329 331 331 331 330 329 324 320 323 323 323 321
311 309 310 311 310 311 312 311 311 312 312 310 308 307 306 306 306 306 306 305 305 304 305 305 306 307 309 313 316 319 320 320 321 321 328 327 326 329 331 332 331 330 328 322 322 324 324 324 322
312 310 310 310 310 310 310 311 310 311 311 308 306 306 306 306 305 305 304 304 304 303 303 302 302 304 305 309 313 316 318 320 321 322 323 327 327 328 330 331 331 330 327 325 324 324 325 323 321
311 310 310 310 310 309 310 310 309 310 309 308 306 306 306 305 304 304 303 302 302 302 302 301 300 302 303 307 310 314 317 318 320 324 325 323 326 328 330 331 330 329 327 325 323 321 322 322 321
310 311 310 310 309 310 309 312 311 309 308 308 307 306 305 305 304 303 302 301 301 301 301 301 300 300 301 304 307 311 315 318 319 325 326 326 325 328 329 330 329 329 326 324 322 321 321 320 320
311 310 313 310 309 310 310 313 310 309 309 309 308 307 306 305 304 303 301 301 300 300 300 301 301 300 300 302 306 308 314 317 319 325 327 325 323 327 328 329 329 328 327 326 324 321 320 320 320
311 312 311 311 308 308 310 312 311 309 308 309 309 308 307 306 305 303 301 300 299 299 300 301 301 301 301 302 305 311 313 315 318 324 326 325 325 326 327 328 329 327 326 325 323 321 319 320 321
312 311 311 311 310 309 311 312 311 311 309 309 310 309 308 307 306 303 301 300 299 298 298 300 300 301 300 301 303 309 311 314 316 317 325 324 324 325 326 327 327 328 326 325 322 321 321 322 322
310 310 311 311 309 309 312 311 311 310 310 310 310 309 308 308 305 303 301 300 299 298 298 298 299 300 300 300 300 303 305 309 311 315 320 324 324 325 326 326 325 325 326 325 323 322 322 321 321
310 309 311 311 308 309 311 311 310 309 310 309 309 308 308 308 307 305 302 300 299 298 297 297 298 299 299 299 298 298 301 306 307 310 315 322 324 324 326 326 325 325 325 326 325 323 323 323 323
310 309 309 310 310 311 310 312 310 309 308 308 308 307 307 306 306 305 303 301 298 297 297 296 297 297 298 298 298 299 302 304 307 307 310 318 320 323 324 324 325 326 326 326 324 325 325 324 323
309 308 308 311 312 314 309 310 311 310 309 309 308 307 306 306 305 304 302 301 299 297 296 296 296 297 297 297 298 298 297 299 300 301 304 312 315 319 322 323 325 325 325 325 325 324 323 324 323
311 307 309 310 312 312 312 310 311 309 308 309 308 307 306 305 304 303 302 300 298 296 296 296 296 297 297 297 297 297 298 298 299 300 303 307 311 315 319 322 323 324 324 325 325 323 325 324 323
306 309 309 308 310 322 311 308 308 306 308 308 308 307 306 305 305 303 301 300 299 296 295 296 296 297 296 296 296 297 297 298 298 299 301 305 307 311 315 319 321 323 325 323 324 323 324 323 322
307 310 327 328 324 326 306 306 308 306 308 308 308 308 307 306 305 304 302 301 299 296 295 295 295 296 296 295 295 296 297 297 299 299 300 300 303 308 311 314 319 322 324 324 324 324 323 322 322
307 306 318 318 323 312 304 309 308 307 306 306 306 307 306 305 305 304 302 300 299 296 295 295 295 295 295 295 295 295 296 297 298 298 299 300 301 304 307 311 314 318 322 323 324 323 322 322 322
309 313 304 310 301 308 309 306 305 305 307 308 307 306 306 305 304 303 302 300 298 296 294 294 294 295 295 294 294 295 296 296 297 298 299 300 300 300 303 308 312 314 317 322 322 321 321 321 321
307 304 311 311 318 324 313 305 307 306 306 307 306 306 305 304 304 303 302 300 298 295 293 294 294 294 295 294 294 295 295 295 296 297 298 299 300 300 301 305 310 313 315 319 320 321 321 321 321
307 309 304 306 306 316 321 313 309 305 306 307 306 305 304 302 302 301 301 300 298 295 293 293 293 294 294 293 294 294 294 295 295 296 296 298 299 300 301 304 308 312 316 318 320 320 321 320 320
304 306 305 310 319 306 307 313 303 305 306 306 306 305 303 301 300 300 300 299 298 297 293 293 293 293 294 294 294 294 294 294 295 294 295 295 297 299 300 303 307 311 314 316 318 319 319 320 320
Wind_Speed
7 3 3 6 4 4 2 3 3 6 5 10 7 8 7 7 4 3 23 21 33 30 19 16 14 13 13 13 12 12 11 9 11 11 10 11 13 15 14 17 17 17 15 14 14 12 12 12 13
3 1 4 1 5 5 5 3 2 7 7 11 7 9 9 4 4 10 12 32 31 28 21 11 12 16 15 15 14 12 13 11 10 10 10 10 11 12 15 17 18 16 15 15 14 13 13 12 13
3 4 4 3 3 3 3 3 5 6 3 10 3 8 4 5 7 11 16 28 25 25 22 13 6 14 16 15 15 15 14 12 12 11 10 11 11 13 14 17 17 16 16 14 14 15 14 13 14
4 6 4 6 3 4 4 5 6 6 4 10 5 5 4 6 9 13 20 21 20 21 23 17 7 8 12 15 14 13 12 12 11 12 13 12 11 11 14 17 17 16 16 15 14 14 15 14 14
5 3 3 1 3 4 6 6 5 7 7 9 9 3 3 3 12 15 18 19 20 20 18 20 12 3 7 8 9 12 11 11 11 10 11 14 14 11 12 15 16 17 16 15 15 14 14 14 13
4 3 4 3 4 3 3 5 4 4 5 9 6 8 4 1 18 19 17 17 17 17 16 17 18 13 3 7 9 7 9 9 11 12 12 12 13 14 14 17 19 18 18 16 16 15 14 13 12
3 3 2 1 3 4 3 4 5 6 4 7 10 7 2 9 20 17 15 14 14 17 16 15 15 16 11 3 5 4 7 10 12 12 11 11 12 14 16 19 21 20 18 17 16 14 12 11 9
3 2 3 1 0 2 3 3 5 5 5 6 8 4 4 17 19 17 15 14 15 17 19 19 15 13 13 8 4 2 7 10 14 14 13 12 11 13 17 19 21 21 20 18 16 13 11 10 9
2 3 1 2 2 4 1 4 5 2 5 2 3 5 9 15 16 15 14 14 17 16 17 19 18 16 13 10 8 1 3 5 16 15 15 13 10 10 16 22 23 23 22 19 16 15 12 12 10
4 3 3 3 3 2 2 4 4 4 2 2 3 4 10 13 13 14 15 16 18 19 18 17 18 16 15 11 9 11 12 3 9 17 16 13 11 11 14 20 26 25 24 18 16 15 14 12 9
5 4 5 3 4 3 3 2 3 6 4 4 8 10 12 14 14 12 14 15 16 17 16 16 18 17 15 15 13 11 14 17 14 15 20 13 12 12 15 20 25 25 20 20 18 17 13 11 9
6 4 2 1 2 2 3 4 6 3 5 3 5 8 10 11 12 13 13 14 16 17 16 17 16 16 14 14 12 11 13 14 17 23 22 16 15 14 16 21 27 29 26 21 17 16 15 10 9
9 4 1 2 1 2 3 4 7 5 2 2 4 6 8 9 10 11 11 12 14 16 17 17 17 15 14 13 12 12 13 15 15 27 22 17 15 16 20 24 31 31 25 25 23 19 15 12 11
5 3 2 0 1 2 6 6 3 5 3 6 5 6 6 7 8 10 11 13 13 15 17 18 18 16 18 15 14 14 14 19 22 26 32 25 19 19 20 26 28 26 26 25 22 16 12 13 12
6 1 4 1 4 2 7 7 6 3 5 6 6 5 4 6 6 8 10 12 13 15 17 17 18 17 16 15 15 13 13 19 24 26 28 34 30 20 21 26 29 29 24 21 22 16 14 13 10
2 1 3 3 5 1 6 4 2 4 6 8 6 5 4 5 5 6 7 10 12 14 17 17 17 20 18 14 15 13 13 16 20 24 30 34 26 22 20 26 29 25 23 20 20 18 16 15 12
2 4 5 1 2 5 3 10 2 5 7 9 7 6 5 5 5 4 6 9 11 13 15 17 17 18 20 16 14 12 9 12 14 10 27 27 26 21 21 22 23 23 22 19 17 18 17 13 12
3 4 6 6 6 8 10 11 9 7 8 10 9 7 7 6 5 5 6 7 9 12 14 14 15 17 18 17 15 10 6 11 11 12 17 20 20 21 19 19 18 18 18 19 19 17 16 15 13
2 4 8 7 5 9 6 12 9 4 5 6 8 7 7 6 3 4 5 7 8 10 12 13 15 17 17 17 17 14 13 12 12 11 11 14 14 16 16 16 18 21 19 20 20 18 16 13 12
1 4 5 7 2 7 10 13 4 3 2 4 6 7 7 6 6 4 5 6 8 10 12 12 13 15 14 14 14 13 17 10 10 9 7 6 8 9 13 14 16 18 20 21 22 20 17 13 14
2 2 6 5 11 9 12 7 6 5 3 1 4 5 5 5 5 5 5 6 7 10 12 12 12 13 13 13 11 13 10 10 10 11 8 4 4 10 11 17 16 17 17 15 18 22 20 14 13
1 2 4 5 6 2 6 3 5 2 3 2 2 4 4 2 2 3 3 5 7 9 10 10 10 11 11 12 10 11 9 8 11 14 8 4 0 7 13 14 17 18 19 17 20 23 19 14 12
3 3 2 2 3 7 1 4 4 2 3 4 2 3 4 3 3 3 2 3 4 6 9 9 8 9 9 9 9 9 11 11 13 14 9 4 2 1 11 15 14 19 21 18 16 17 14 13 12
5 4 3 2 1 3 1 3 1 4 4 2 2 2 3 4 4 3 2 1 2 3 6 7 7 8 9 9 8 9 9 11 12 13 12 7 5 3 1 9 18 16 19 24 16 15 13 14 12
4 4 3 2 1 1 2 4 6 2 2 3 4 5 4 4 5 4 3 2 1 3 4 6 7 8 8 7 9 7 7 8 9 10 10 7 5 5 4 3 11 16 17 17 15 14 12 12 11
3 5 2 4 3 3 2 5 1 2 1 4 5 5 5 5 4 4 3 2 0 2 4 4 6 7 8 8 6 7 7 6 7 7 9 10 8 7 6 2 4 11 18 17 14 13 13 14 15
1 1 2 0 2 3 2 5 5 2 4 3 3 2 5 4 5 5 3 3 2 2 2 4 5 6 6 8 9 8 7 7 7 6 6 5 6 7 6 3 1 4 8 20 17 15 13 14 15
2 3 1 2 3 4 3 4 2 5 6 4 3 3 3 3 5 5 5 3 2 2 2 2 3 5 5 5 5 5 5 5 7 7 5 4 5 6 7 5 2 1 3 9 14 14 11 10 13
3 2 2 1 1 3 4 1 3 4 5 4 2 1 5 5 4 4 4 4 2 2 2 2 3 3 5 5 5 4 6 6 5 6 7 7 6 6 6 6 4 1 1 4 6 6 8 7 6
3 3 4 3 2 1 2 6 1 3 1 2 3 3 4 4 3 3 3 5 4 2 2 2 2 3 4 4 3 5 5 5 5 5 6 6 7 6 6 4 3 1 2 5 7 7 7 10 9
Wind_Direction
340 296 226 225 222 245 199 118 305 356 348 353 332 45 80 46 11 18 331 341 353 351 326 322 227 208 199 195 198 194 185 180 170 166 166 168 173 172 170 155 142 133 132 130 122 118 110 106 108
340 288 229 229 253 227 133 62 18 9 357 335 55 333 34 69 34 318 338 339 350 343 353 312 235 209 203 194 198 203 192 188 187 179 175 176 180 175 168 158 147 144 137 128 127 124 122 117 115
309 263 247 240 282 302 21 64 4 347 41 4 74 54 24 1 347 335 327 331 350 358 10 350 293 231 213 202 199 200 198 197 196 189 186 189 188 182 173 163 152 149 141 135 132 130 129 120 123
277 204 214 255 96 42 31 42 352 354 74 41 74 72 81 56 343 328 329 339 353 1 17 13 344 249 235 214 201 193 193 193 197 198 193 195 200 194 177 168 162 156 145 139 138 135 132 127 129
237 258 242 311 75 95 63 22 355 356 9 18 344 119 120 292 360 347 345 347 353 2 10 13 31 353 257 229 213 195 189 187 191 196 198 197 201 195 187 178 172 167 159 149 144 140 138 136 138
227 282 247 260 100 122 98 9 341 347 2 16 3 327 132 232 0 352 350 351 355 357 12 9 7 32 2 171 200 217 204 209 207 200 198 198 200 206 200 192 183 173 164 156 148 146 142 138 143
312 284 31 320 120 174 27 341 7 333 345 23 343 309 63 15 350 346 347 354 2 1 7 4 14 2 24 80 177 206 224 232 235 218 209 207 206 211 206 198 189 178 169 158 156 153 148 139 144
302 281 191 21 208 97 36 331 344 353 34 325 350 15 330 343 341 343 345 350 358 3 3 3 355 5 356 344 19 199 276 250 240 234 228 218 215 213 208 197 195 185 174 166 167 159 152 140 145
313 245 84 54 309 61 16 312 97 305 294 25 33 19 340 338 339 344 345 347 351 357 2 359 0 352 342 343 301 309 324 266 250 237 236 227 218 225 204 195 193 185 177 170 168 168 161 152 151
355 321 54 22 20 336 343 325 330 296 302 211 235 8 349 344 345 346 345 346 347 347 350 356 359 354 349 333 320 288 255 275 292 246 230 223 215 210 200 195 189 181 170 168 161 171 168 148 159
24 55 124 86 21 333 353 283 339 314 272 42 328 335 340 341 344 347 344 341 337 337 339 345 353 353 347 342 325 310 285 258 261 272 223 217 212 205 194 189 189 183 175 164 172 172 172 167 169
112 75 3 116 44 312 331 327 296 309 13 346 326 326 326 333 335 339 337 335 335 336 337 338 344 346 343 335 330 311 296 305 266 256 232 206 208 200 192 189 185 175 174 175 171 174 180 180 176
90 105 91 130 176 4 313 281 316 265 227 235 289 298 315 316 321 325 330 335 336 337 335 335 337 340 336 328 318 307 291 286 286 242 229 209 208 200 197 188 184 184 179 178 178 177 182 182 179
103 123 152 241 303 281 298 299 254 166 225 244 259 297 309 315 320 321 334 337 339 335 333 333 336 336 333 327 313 306 296 290 299 239 221 204 208 204 190 188 183 188 180 186 187 182 188 188 179
118 166 236 257 345 253 319 217 230 146 217 261 265 281 303 305 309 321 327 333 336 333 332 340 335 337 331 325 318 306 299 302 305 240 210 196 191 203 195 184 181 187 186 189 195 178 192 187 182
158 243 274 102 332 156 311 14 202 197 247 267 282 284 284 298 300 306 320 325 335 336 336 337 336 337 333 324 322 312 316 312 293 230 203 199 184 198 189 187 193 195 188 180 183 182 184 187 190
156 339 340 204 53 322 292 318 106 241 257 275 278 280 282 288 295 307 324 328 332 336 338 339 341 339 336 332 330 320 319 327 335 232 194 188 182 192 188 189 193 193 188 180 185 189 194 194 206
351 328 332 312 30 325 285 277 306 260 247 275 277 277 279 288 322 328 322 331 331 333 339 341 342 342 341 337 332 325 323 349 7 21 187 186 190 186 183 185 184 184 189 182 181 186 191 201 204
72 307 302 322 20 323 289 305 304 343 277 265 270 277 286 292 344 305 316 326 327 332 338 344 344 348 349 346 347 346 345 359 12 14 88 152 181 194 180 182 189 192 183 182 181 184 189 194 198
62 324 354 307 302 314 298 304 254 264 314 305 305 304 300 291 278 290 302 324 335 333 339 346 346 348 352 350 338 333 331 344 344 15 51 137 200 194 193 184 188 186 192 201 185 179 186 195 190
73 4 352 307 315 265 285 247 218 188 251 277 287 299 287 271 283 303 315 327 339 336 341 345 343 346 353 352 345 345 349 343 352 360 43 97 193 208 199 207 198 196 193 203 199 191 184 179 196
286 93 307 308 330 336 342 316 182 195 308 203 305 324 338 319 244 281 307 333 353 330 341 342 344 347 357 358 354 355 354 354 336 330 343 78 183 212 209 210 220 205 196 199 202 204 201 195 184
33 298 298 297 294 313 197 245 109 179 307 36 6 331 327 324 312 296 300 345 353 335 341 347 345 350 1 0 1 355 359 348 330 325 345 50 76 214 226 220 220 223 199 205 209 200 194 197 187
318 251 223 244 286 254 193 294 71 342 332 335 4 358 317 317 296 264 230 226 16 8 344 348 354 359 0 0 9 360 354 347 332 334 340 2 12 51 233 220 220 217 219 218 207 201 192 202 204
272 291 325 285 234 291 159 259 270 292 258 281 300 314 314 301 288 284 260 275 31 20 8 355 354 3 356 1 359 4 352 342 326 337 332 333 339 18 28 220 207 203 206 204 198 191 195 207 215
8 318 126 291 325 355 126 237 195 131 205 264 263 274 287 273 281 269 264 232 68 46 21 16 8 7 357 3 358 2 4 324 329 333 327 329 341 330 348 11 196 196 198 197 192 203 211 219 232
59 269 48 138 144 278 250 252 255 207 214 202 237 260 278 295 294 297 274 240 180 114 66 13 13 25 22 2 357 357 356 346 332 323 323 325 323 310 300 301 142 167 198 201 208 215 231 239 243
250 130 120 80 302 271 210 277 284 204 209 197 233 265 312 307 295 293 280 241 192 128 109 80 29 23 18 21 16 354 346 351 339 330 324 321 316 314 311 311 297 243 173 189 210 219 216 229 232
162 207 219 136 240 297 315 256 186 165 179 195 170 306 322 322 305 301 275 257 202 168 131 110 81 32 27 25 15 2 6 5 348 341 337 336 331 327 318 302 295 231 186 160 172 179 185 190 219
279 278 249 184 171 230 291 275 321 111 141 238 240 263 311 314 301 298 255 243 244 214 153 116 86 69 45 16 11 18 28 18 12 360 350 348 341 345 328 295 284 294 181 178 191 196 205 198 200